TimeEST,TemperatureF,Dew PointF,Humidity,Sea Level PressureIn,VisibilityMPH,Wind Direction,Wind SpeedMPH,Gust SpeedMPH,PrecipitationIn,Events,Conditions,WindDirDegrees,DateUTC
12:51 AM,23.0,18.0,81,30.30,10.0,Calm,Calm,-,N/A,,Clear,0,2012-12-07 05:51:00
1:51 AM,21.9,18.0,85,30.29,10.0,Calm,Calm,-,N/A,,Clear,0,2012-12-07 06:51:00
2:51 AM,21.0,17.1,85,30.27,10.0,West,6.9,-,N/A,,Clear,280,2012-12-07 07:51:00
3:51 AM,21.9,18.0,85,30.27,10.0,West,4.6,-,N/A,,Clear,280,2012-12-07 08:51:00
4:51 AM,23.0,19.0,85,30.27,10.0,Calm,Calm,-,N/A,,Clear,0,2012-12-07 09:51:00
5:51 AM,24.1,19.0,81,30.25,10.0,Calm,Calm,-,N/A,,Clear,0,2012-12-07 10:51:00
6:51 AM,25.0,19.9,81,30.25,10.0,Calm,Calm,-,N/A,,Clear,0,2012-12-07 11:51:00
7:51 AM,26.1,21.0,81,30.24,10.0,Calm,Calm,-,N/A,,Clear,0,2012-12-07 12:51:00
8:51 AM,30.9,21.0,67,30.22,10.0,SSE,3.5,-,N/A,,Clear,160,2012-12-07 13:51:00
9:51 AM,34.0,24.1,67,30.22,10.0,SSW,5.8,-,N/A,,Partly Cloudy,210,2012-12-07 14:51:00
10:22 AM,35.6,24.8,65,30.21,10.0,WSW,9.2,-,N/A,,Mostly Cloudy,250,2012-12-07 15:22:00
10:51 AM,37.0,26.1,65,30.20,10.0,SSW,6.9,-,N/A,,Mostly Cloudy,210,2012-12-07 15:51:00
11:51 AM,39.9,28.9,65,30.16,10.0,SW,8.1,-,N/A,,Scattered Clouds,220,2012-12-07 16:51:00
12:51 PM,41.0,28.9,62,30.14,10.0,SW,11.5,-,N/A,,Scattered Clouds,220,2012-12-07 17:51:00
1:51 PM,41.0,30.2,65,30.11,10.0,SSW,6.9,-,N/A,,Mostly Cloudy,200,2012-12-07 18:51:00
2:51 PM,41.0,30.0,65,30.11,10.0,SW,3.5,-,N/A,,Overcast,220,2012-12-07 19:51:00
3:51 PM,41.0,32.0,70,30.10,10.0,South,8.1,-,0.00,,Overcast,190,2012-12-07 20:51:00
4:51 PM,41.0,32.0,70,30.09,10.0,SSW,4.6,-,N/A,,Overcast,200,2012-12-07 21:51:00
5:51 PM,39.9,35.1,83,30.08,7.0,SW,5.8,-,0.01,Rain,Light Rain,220,2012-12-07 22:51:00
6:51 PM,39.0,36.0,89,30.09,9.0,SW,4.6,-,0.04,Rain,Light Rain,220,2012-12-07 23:51:00
7:51 PM,39.0,37.0,93,30.08,4.0,SW,3.5,-,0.04,Rain,Light Rain,220,2012-12-08 00:51:00
8:51 PM,39.0,37.0,93,30.07,6.0,Calm,Calm,-,0.01,,Overcast,0,2012-12-08 01:51:00
9:14 PM,39.2,37.4,93,30.06,7.0,Calm,Calm,-,N/A,,Overcast,0,2012-12-08 02:14:00
9:51 PM,39.0,37.0,93,30.06,7.0,WSW,3.5,-,N/A,,Overcast,240,2012-12-08 02:51:00
10:51 PM,37.9,36.0,93,30.05,6.0,West,3.5,-,N/A,,Overcast,280,2012-12-08 03:51:00
11:51 PM,37.9,36.0,93,30.04,6.0,Calm,Calm,-,N/A,,Overcast,0,2012-12-08 04:51:00